Location: Catstown
(52.4386°N, 7.2633°W)
Time: 01:51:46
(UTC+00:00)

ATLAS CENTAUR R/B - Pass Details

Date: 18 September 2020
Orbit: 479 x 667 km, 64.7° (Epoch: 12 October)

Event Time Altitude Azimuth Distance (km) Brightness Sun altitude
Rises 22:46:02 0° 314° (NW) 2,574 5.7 -32.4°
Reaches altitude 10° 22:48:53 10° 337° (NNW) 1,674 4.6 -32.7°
Enters shadow 22:49:51 13° 351° (N) 1,468 4.2 -32.7°
